Weather History for De Queen, AR

Change the Weather History Date:

Sunday, January 19, 2014

  Actual Average Record
Temperature  
Mean Temperature 42 °F 41 °F  
Max Temperature 58 °F 54 °F 80 °F (1952)
Min Temperature 25 °F 29 °F 0 °F (1940)
Degree Days  
Heating Degree Days 23 24  
Month to date heating degree days 498 450  
Since 1 July heating degree days 1811 1659  
Cooling Degree Days 0 0  
Month to date cooling degree days 0 0  
Year to date cooling degree days 0 0  
Moisture  
Dew Point 25 °F    
Average Humidity 59    
Maximum Humidity 92    
Minimum Humidity 25    
Precipitation  
Precipitation 0.00 in 0.09 in 2.68 in (1990)
Month to date precipitation 0.92 2.05  
Year to date precipitation 0.92 2.05  
Snow  
Snow 0.00 in - - ()
Month to date snowfall T  
Since 1 July snowfall 0.1  
Snow Depth 0.00 in    
Sea Level Pressure  
Sea Level Pressure 30.15 in    
Wind  
Wind Speed 4 mph (WSW)    
Max Wind Speed 15 mph    
Max Gust Speed 19 mph    
Visibility 10 miles    
Events      
T = Trace of Precipitation, MM = Missing Value Source: NWS Daily Summary

Daily Weather History Graph

Daily Weather History Graph

Search for Another Location

Airport:

Trip Planner

Search our weather history database for the weather conditions in past years. The results will help you decide how hot, cold, wet, or windy it might be!

Date:

Astronomy

Jan. 19, 2014 Rise Set
Actual Time 7:21 AM CST 5:35 PM CST
Civil Twilight 6:54 AM CST 6:02 PM CST
Nautical Twilight 6:24 AM CST 6:32 PM CST
Astronomical Twilight 5:54 AM CST 7:02 PM CST
Moon 9:02 PM CST 9:02 AM CST
Length of Visible Light 11h 07m
Length of Day
10h 13m
Waning Gibbous, 89% of the Moon is Illuminated
Jan 19
Waning Gibbous
Jan 23
Last Quarter
Jan 30
New
Feb 6
First Quarter
Feb 14
Full

Hourly Weather History & Observations

Time (CST) Temp. Windchill Dew Point Humidity Pressure Visibility Wind Dir Wind Speed Gust Speed Precip Events Conditions
12:53 AM 46.0 °F 43.1 °F 25.0 °F 44% 30.11 in 10.0 mi NW 5.8 mph - N/A   Clear
1:53 AM 41.0 °F 38.0 °F 24.1 °F 51% 30.14 in 10.0 mi West 4.6 mph - N/A   Clear
2:53 AM 39.9 °F 36.7 °F 24.1 °F 53% 30.16 in 10.0 mi WSW 4.6 mph - N/A   Clear
3:53 AM 39.9 °F 34.5 °F 24.1 °F 53% 30.16 in 10.0 mi WNW 8.1 mph - N/A   Clear
4:53 AM 32.0 °F 28.7 °F 23.0 °F 69% 30.16 in 10.0 mi WSW 3.5 mph - N/A   Clear
5:53 AM 30.0 °F - 23.0 °F 75% 30.18 in 10.0 mi Calm Calm - N/A   Clear
6:53 AM 27.0 °F 23.0 °F 23.0 °F 85% 30.19 in 10.0 mi West 3.5 mph - N/A   Clear
7:53 AM 28.0 °F - 25.0 °F 88% 30.21 in 10.0 mi Calm Calm - N/A   Clear
8:53 AM 37.0 °F - 28.0 °F 70% 30.23 in 10.0 mi Calm Calm - N/A   Clear
9:53 AM 44.1 °F 40.8 °F 26.1 °F 49% 30.25 in 10.0 mi WSW 5.8 mph - N/A   Clear
10:53 AM 48.9 °F - 24.1 °F 38% 30.25 in 10.0 mi WSW 9.2 mph - N/A   Clear
11:53 AM 52.0 °F - 23.0 °F 32% 30.21 in 10.0 mi Calm Calm - N/A   Clear
12:53 PM 55.0 °F - 24.1 °F 30% 30.19 in 10.0 mi WSW 11.5 mph - N/A   Clear
1:53 PM 57.9 °F - 24.1 °F 27% 30.15 in 10.0 mi WSW 9.2 mph - N/A   Clear
2:53 PM 57.9 °F - 23.0 °F 26% 30.12 in 10.0 mi WSW 10.4 mph - N/A   Clear
3:53 PM 57.9 °F - 24.1 °F 27% 30.11 in 10.0 mi WSW 9.2 mph - N/A   Clear
4:53 PM 55.9 °F - 24.1 °F 29% 30.10 in 10.0 mi WSW 8.1 mph - N/A   Clear
5:53 PM 53.1 °F - 25.0 °F 34% 30.10 in 10.0 mi SSW 4.6 mph - N/A   Clear
6:53 PM 41.0 °F - 28.0 °F 60% 30.09 in 10.0 mi Calm Calm - N/A   Clear
7:53 PM 36.0 °F - 28.0 °F 73% 30.10 in 10.0 mi Calm Calm - N/A   Clear
8:53 PM 33.1 °F - 28.0 °F 82% 30.09 in 10.0 mi Calm Calm - N/A   Clear
9:53 PM 32.0 °F - 28.0 °F 85% 30.09 in 10.0 mi Calm Calm - N/A   Clear
10:53 PM 28.9 °F - 27.0 °F 92% 30.08 in 10.0 mi Calm Calm - N/A   Clear
11:53 PM 28.9 °F - 27.0 °F 92% 30.06 in 10.0 mi Calm Calm - N/A   Clear